Location: Unspecified
(0.0000°N, 0.0000°E)
Time: 10:26:40
(UTC+00:00)

N. Korean satellite - Pass Details

Date: 26 June 2017
Orbit: 461 x 518 km, 97.2° (Epoch: 26 June)

Event Time Altitude Azimuth Distance (km) Brightness Sun altitude
Rises 18:42:36 0° 174° (S) 2,633 10.0 -9.1°
Reaches altitude 10° 18:44:43 10° 177° (S) 1,741 9.1 -9.6°
Maximum altitude 18:48:27 66° 259° (WSW) 559 7.1 -10.4°
Drops below altitude 10° 18:52:07 10° 342° (NNW) 1,711 10.0 -11.3°
Sets 18:54:11 0° 345° (NNW) 2,584 10.9 -11.7°
